Time,TemperatureF,DewpointF,PressureIn,WindDirection,WindDirectionDegrees,WindSpeedMPH,WindSpeedGustMPH,Humidity,HourlyPrecipIn,Conditions,Clouds,dailyrainin,SolarRadiationWatts/m^2,SoftwareType,DateUTC
2013-01-23 00:22:00,30.0,17.0,-100.00,ENE,74,3.0,4.0,57,0.00,,,-99.99,1.000000,,2013-01-23 08:22:00,
2013-01-23 00:33:00,30.0,17.0,-100.00,ENE,74,3.0,4.0,57,0.00,,,-99.99,1.000000,,2013-01-23 08:33:00,
2013-01-23 00:42:00,30.0,17.0,-100.00,ENE,74,3.0,4.0,57,0.00,,,-99.99,1.000000,,2013-01-23 08:42:00,
2013-01-23 00:52:00,30.0,17.0,-100.00,ENE,74,3.0,4.0,57,0.00,,,-99.99,1.000000,,2013-01-23 08:52:00,
2013-01-23 01:22:00,31.0,15.0,-100.00,East,79,2.0,5.0,51,0.00,,,0.00,1.000000,,2013-01-23 09:22:00,
2013-01-23 01:32:00,31.0,15.0,-100.00,East,79,2.0,5.0,51,0.00,,,0.00,1.000000,,2013-01-23 09:32:00,
2013-01-23 01:43:00,31.0,15.0,-100.00,East,79,2.0,5.0,51,0.00,,,0.00,1.000000,,2013-01-23 09:43:00,
2013-01-23 01:52:00,31.0,15.0,-100.00,East,79,2.0,5.0,51,0.00,,,0.00,1.000000,,2013-01-23 09:52:00,
2013-01-23 02:22:00,30.0,15.0,-100.00,East,87,2.0,6.0,54,0.00,,,-99.99,1.000000,,2013-01-23 10:22:00,
2013-01-23 02:32:00,30.0,15.0,-100.00,East,87,2.0,6.0,54,0.00,,,-99.99,1.000000,,2013-01-23 10:32:00,
2013-01-23 02:42:00,30.0,15.0,-100.00,East,87,2.0,6.0,54,0.00,,,-99.99,1.000000,,2013-01-23 10:42:00,
2013-01-23 02:52:00,30.0,15.0,-100.00,East,87,2.0,6.0,54,0.00,,,-99.99,1.000000,,2013-01-23 10:52:00,
2013-01-23 03:22:00,33.0,14.0,-100.00,NE,52,3.0,5.0,46,0.00,,,0.00,1.000000,,2013-01-23 11:22:00,
2013-01-23 03:33:00,33.0,14.0,-100.00,NE,52,3.0,5.0,46,0.00,,,0.00,1.000000,,2013-01-23 11:33:00,
2013-01-23 03:42:00,33.0,14.0,-100.00,NE,52,3.0,5.0,46,0.00,,,0.00,1.000000,,2013-01-23 11:42:00,
2013-01-23 03:52:00,33.0,14.0,-100.00,NE,52,3.0,5.0,46,0.00,,,0.00,1.000000,,2013-01-23 11:52:00,
2013-01-23 04:22:00,33.0,14.0,-100.00,East,101,3.0,5.0,46,0.00,,,0.00,1.000000,,2013-01-23 12:22:00,
2013-01-23 04:33:00,33.0,14.0,-100.00,East,101,3.0,5.0,46,0.00,,,0.00,1.000000,,2013-01-23 12:33:00,
2013-01-23 04:42:00,33.0,14.0,-100.00,East,101,3.0,5.0,46,0.00,,,0.00,1.000000,,2013-01-23 12:42:00,
2013-01-23 04:52:00,33.0,14.0,-100.00,East,101,3.0,5.0,46,0.00,,,0.00,1.000000,,2013-01-23 12:52:00,
2013-01-23 05:23:00,34.0,16.0,-100.00,ESE,102,3.0,6.0,48,0.00,,,0.00,1.000000,,2013-01-23 13:23:00,
2013-01-23 05:33:00,34.0,16.0,-100.00,ESE,102,3.0,6.0,48,0.00,,,0.00,1.000000,,2013-01-23 13:33:00,
2013-01-23 05:42:00,34.0,16.0,-100.00,ESE,102,3.0,6.0,48,0.00,,,0.00,1.000000,,2013-01-23 13:42:00,
2013-01-23 05:52:00,34.0,16.0,-100.00,ESE,102,3.0,6.0,48,0.00,,,0.00,1.000000,,2013-01-23 13:52:00,
2013-01-23 07:22:00,40.0,16.0,-100.00,South,188,7.0,16.0,38,-99.99,,,0.00,1.000000,,2013-01-23 15:22:00,
2013-01-23 07:33:00,40.0,16.0,-100.00,South,188,7.0,16.0,38,-99.99,,,0.00,1.000000,,2013-01-23 15:33:00,
2013-01-23 07:43:00,40.0,16.0,-100.00,South,188,7.0,16.0,38,-99.99,,,0.00,1.000000,,2013-01-23 15:43:00,
2013-01-23 07:52:00,40.0,16.0,-100.00,South,188,7.0,16.0,38,-99.99,,,0.00,1.000000,,2013-01-23 15:52:00,
2013-01-23 08:22:00,43.0,19.0,-100.00,South,173,7.0,18.0,38,0.00,,,0.00,4.000000,,2013-01-23 16:22:00,
2013-01-23 08:32:00,43.0,19.0,-100.00,South,173,7.0,18.0,38,0.00,,,0.00,4.000000,,2013-01-23 16:32:00,
2013-01-23 08:42:00,43.0,19.0,-100.00,South,173,7.0,18.0,38,0.00,,,0.00,4.000000,,2013-01-23 16:42:00,
2013-01-23 08:52:00,43.0,19.0,-100.00,South,173,7.0,18.0,38,0.00,,,0.00,4.000000,,2013-01-23 16:52:00,
2013-01-23 09:22:00,44.0,21.0,-100.00,SSE,167,6.0,21.0,39,0.00,,,0.00,38.000000,,2013-01-23 17:22:00,
2013-01-23 09:33:00,44.0,21.0,-100.00,SSE,167,6.0,21.0,39,0.00,,,0.00,38.000000,,2013-01-23 17:33:00,
2013-01-23 09:42:00,44.0,21.0,-100.00,SSE,167,6.0,21.0,39,0.00,,,0.00,38.000000,,2013-01-23 17:42:00,
2013-01-23 09:52:00,44.0,21.0,-100.00,SSE,167,6.0,21.0,39,0.00,,,0.00,38.000000,,2013-01-23 17:52:00,
2013-01-23 10:23:00,42.0,27.0,-100.00,South,170,8.0,31.0,54,0.00,,,0.00,136.000000,,2013-01-23 18:23:00,
2013-01-23 10:33:00,42.0,27.0,-100.00,South,170,8.0,31.0,54,0.00,,,0.00,136.000000,,2013-01-23 18:33:00,
2013-01-23 10:43:00,42.0,27.0,-100.00,South,170,8.0,31.0,54,0.00,,,0.00,136.000000,,2013-01-23 18:43:00,
2013-01-23 10:52:00,42.0,27.0,-100.00,South,170,8.0,31.0,54,0.00,,,0.00,136.000000,,2013-01-23 18:52:00,
2013-01-23 11:22:00,45.0,23.0,-100.00,SW,217,6.0,17.0,42,0.00,,,0.00,150.000000,,2013-01-23 19:22:00,
2013-01-23 11:33:00,45.0,23.0,-100.00,SW,217,6.0,17.0,42,0.00,,,0.00,150.000000,,2013-01-23 19:33:00,
2013-01-23 11:43:00,45.0,23.0,-100.00,SW,217,6.0,17.0,42,0.00,,,0.00,150.000000,,2013-01-23 19:43:00,
2013-01-23 11:52:00,45.0,23.0,-100.00,SW,217,6.0,17.0,42,0.00,,,0.00,150.000000,,2013-01-23 19:52:00,
2013-01-23 12:23:00,46.0,22.0,-100.00,South,180,12.0,29.0,38,0.00,,,0.00,382.000000,,2013-01-23 20:23:00,
2013-01-23 12:32:00,46.0,22.0,-100.00,South,180,12.0,29.0,38,0.00,,,0.00,382.000000,,2013-01-23 20:32:00,
2013-01-23 12:42:00,46.0,22.0,-100.00,South,180,12.0,29.0,38,0.00,,,0.00,382.000000,,2013-01-23 20:42:00,
2013-01-23 12:53:00,46.0,22.0,-100.00,South,180,12.0,29.0,38,0.00,,,0.00,382.000000,,2013-01-23 20:53:00,
2013-01-23 13:22:00,45.0,25.0,-100.00,South,190,13.0,28.0,46,0.00,,,-99.99,333.000000,,2013-01-23 21:22:00,
2013-01-23 13:33:00,45.0,25.0,-100.00,South,190,13.0,28.0,46,0.00,,,-99.99,333.000000,,2013-01-23 21:33:00,
2013-01-23 13:42:00,45.0,25.0,-100.00,South,190,13.0,28.0,46,0.00,,,-99.99,333.000000,,2013-01-23 21:42:00,
2013-01-23 13:52:00,45.0,25.0,-100.00,South,190,13.0,28.0,46,0.00,,,-99.99,333.000000,,2013-01-23 21:52:00,
2013-01-23 14:22:00,46.0,28.0,-100.00,West,271,4.0,24.0,50,0.00,,,0.00,293.000000,,2013-01-23 22:22:00,
2013-01-23 14:33:00,46.0,28.0,-100.00,West,271,4.0,24.0,50,0.00,,,0.00,293.000000,,2013-01-23 22:33:00,
2013-01-23 14:42:00,46.0,28.0,-100.00,West,271,4.0,24.0,50,0.00,,,0.00,293.000000,,2013-01-23 22:42:00,
2013-01-23 14:52:00,46.0,28.0,-100.00,West,271,4.0,24.0,50,0.00,,,0.00,293.000000,,2013-01-23 22:52:00,
2013-01-23 15:22:00,42.0,28.0,-100.00,WNW,295,6.0,14.0,57,0.00,,,-99.99,106.000000,,2013-01-23 23:22:00,
2013-01-23 15:33:00,42.0,28.0,-100.00,WNW,295,6.0,14.0,57,0.00,,,-99.99,106.000000,,2013-01-23 23:33:00,
2013-01-23 15:42:00,42.0,28.0,-100.00,WNW,295,6.0,14.0,57,0.00,,,-99.99,106.000000,,2013-01-23 23:42:00,
2013-01-23 15:52:00,42.0,28.0,-100.00,WNW,295,6.0,14.0,57,0.00,,,-99.99,106.000000,,2013-01-23 23:52:00,
2013-01-23 16:22:00,43.0,27.0,-100.00,South,181,8.0,15.0,52,0.00,,,0.00,42.000000,,2013-01-24 00:22:00,
2013-01-23 16:32:00,43.0,27.0,-100.00,South,181,8.0,15.0,52,0.00,,,0.00,42.000000,,2013-01-24 00:32:00,
2013-01-23 16:42:00,43.0,27.0,-100.00,South,181,8.0,15.0,52,0.00,,,0.00,42.000000,,2013-01-24 00:42:00,
2013-01-23 16:52:00,43.0,27.0,-100.00,South,181,8.0,15.0,52,0.00,,,0.00,42.000000,,2013-01-24 00:52:00,
2013-01-23 17:22:00,37.0,34.0,-100.00,SSE,154,8.0,15.0,89,0.03,,,-99.99,10.000000,,2013-01-24 01:22:00,
2013-01-23 17:33:00,37.0,34.0,-100.00,SSE,154,8.0,15.0,89,0.03,,,-99.99,10.000000,,2013-01-24 01:33:00,
2013-01-23 17:42:00,37.0,34.0,-100.00,SSE,154,8.0,15.0,89,0.03,,,-99.99,10.000000,,2013-01-24 01:42:00,
2013-01-23 17:52:00,37.0,34.0,-100.00,SSE,154,8.0,15.0,89,0.03,,,-99.99,10.000000,,2013-01-24 01:52:00,
2013-01-23 18:22:00,36.0,34.0,-100.00,South,177,6.0,14.0,93,0.07,,,0.10,1.000000,,2013-01-24 02:22:00,
2013-01-23 18:33:00,36.0,34.0,-100.00,South,177,6.0,14.0,93,0.07,,,0.10,1.000000,,2013-01-24 02:33:00,
2013-01-23 18:42:00,36.0,34.0,-100.00,South,177,6.0,14.0,93,0.07,,,0.10,1.000000,,2013-01-24 02:42:00,
2013-01-23 18:52:00,36.0,34.0,-100.00,South,177,6.0,14.0,93,0.07,,,0.10,1.000000,,2013-01-24 02:52:00,
2013-01-23 19:22:00,36.0,35.0,-100.00,SSW,193,4.0,11.0,96,0.03,,,0.13,1.000000,,2013-01-24 03:22:00,
2013-01-23 19:32:00,36.0,35.0,-100.00,SSW,193,4.0,11.0,96,0.03,,,0.13,1.000000,,2013-01-24 03:32:00,
2013-01-23 19:42:00,36.0,35.0,-100.00,SSW,193,4.0,11.0,96,0.03,,,0.13,1.000000,,2013-01-24 03:42:00,
2013-01-23 19:52:00,36.0,35.0,-100.00,SSW,193,4.0,11.0,96,0.03,,,0.13,1.000000,,2013-01-24 03:52:00,
2013-01-23 20:22:00,36.0,35.0,-100.00,South,189,6.0,12.0,96,0.05,,,0.18,1.000000,,2013-01-24 04:22:00,
2013-01-23 20:32:00,36.0,35.0,-100.00,South,189,6.0,12.0,96,0.05,,,0.18,1.000000,,2013-01-24 04:32:00,
2013-01-23 20:42:00,36.0,35.0,-100.00,South,189,6.0,12.0,96,0.05,,,0.18,1.000000,,2013-01-24 04:42:00,
2013-01-23 20:52:00,36.0,35.0,-100.00,South,189,6.0,12.0,96,0.05,,,0.18,1.000000,,2013-01-24 04:52:00,
2013-01-23 21:22:00,36.0,35.0,-100.00,SSW,200,5.0,11.0,97,0.03,,,0.21,1.000000,,2013-01-24 05:22:00,
2013-01-23 21:32:00,36.0,35.0,-100.00,SSW,200,5.0,11.0,97,0.03,,,0.21,1.000000,,2013-01-24 05:32:00,
2013-01-23 21:42:00,36.0,35.0,-100.00,SSW,200,5.0,11.0,97,0.03,,,0.21,1.000000,,2013-01-24 05:42:00,
2013-01-23 21:52:00,36.0,35.0,-100.00,SSW,200,5.0,11.0,97,0.03,,,0.21,1.000000,,2013-01-24 05:52:00,
2013-01-23 22:22:00,36.0,35.0,-100.00,SW,215,4.0,9.0,97,0.01,,,0.22,1.000000,,2013-01-24 06:22:00,
2013-01-23 22:32:00,36.0,35.0,-100.00,SW,215,4.0,9.0,97,0.01,,,0.22,1.000000,,2013-01-24 06:32:00,
2013-01-23 22:42:00,36.0,35.0,-100.00,SW,215,4.0,9.0,97,0.01,,,0.22,1.000000,,2013-01-24 06:42:00,
2013-01-23 22:52:00,36.0,35.0,-100.00,SW,215,4.0,9.0,97,0.01,,,0.22,1.000000,,2013-01-24 06:52:00,
2013-01-23 23:22:00,35.0,35.0,-100.00,SSW,204,5.0,7.0,99,0.00,,,0.22,1.000000,,2013-01-24 07:22:00,
2013-01-23 23:33:00,35.0,35.0,-100.00,SSW,204,5.0,7.0,99,0.00,,,0.22,1.000000,,2013-01-24 07:33:00,
2013-01-23 23:42:00,35.0,35.0,-100.00,SSW,204,5.0,7.0,99,0.00,,,0.22,1.000000,,2013-01-24 07:42:00,
2013-01-23 23:52:00,35.0,35.0,-100.00,SSW,204,5.0,7.0,99,0.00,,,0.22,1.000000,,2013-01-24 07:52:00,